Other Public Products
Issued by NWS Grand Forks, ND

Home | Current Version | Previous Version | Text Only | Print | Product List | Glossary On
Versions: 1 2 3 4 5 6 7 8 9 10 11 12 13 14 15 16 17 18 19 20 21 22 23 24 25 26 27 28 29 30 31 32 33 34 35 36 37 38 39 40 41 42 43 44 45 46 47 48 49 50
000
FPUS83 KFGF 300931
OPUFGF
PRAIRIE TO PINES WEATHER ROUNDUP
NATIONAL WEATHER SERVICE EASTERN NORTH DAKOTA/GRAND FORKS ND
400 AM CDT SAT APR 30 2016

 **SATELLITE DATA USED TO AUGMENT SKY COVER AT AUTOMATED STATIONS**
 *****  WEATHER ACROSS EASTERN NORTH DAKOTA  *****

CITY           SKY/WX    TMP DP  RH WIND       PRES   REMARKS
GRAND FORKS    CLEAR     39  31  72 E9        30.21R
GRAND FORKS AF CLEAR     34  28  81 N5        30.22R
GRAND CITY NWS NOT AVBL
BUXTON           N/A     39  36  87 NE7         N/A
DEVILS LAKE    CLEAR     37  31  78 NE9       30.21R
FARGO          CLEAR     45  32  60 E9        30.17R
WAHPETON ARPT  SUNNY     43  32  65 E9        30.14S
$$

 *****  WEATHER ACROSS CENTRAL AND WESTERN NORTH DAKOTA  *****

CITY           SKY/WX    TMP DP  RH WIND       PRES   REMARKS
JAMESTOWN      CLEAR     41  32  70 NE13      30.12S
BISMARCK       CLEAR     39  32  76 NE6       30.14R
MINOT          CLEAR     37  27  67 NW3       30.20R
MINOT AFB      CLEAR     40  28  62 E10       30.19S
GARRISON         N/A     43  27  53 NE10      30.16S
WILLISTON      CLEAR     43  29  57 CALM      30.18R
DICKINSON      PTCLDY    35  28  75 NE8       30.11S
HETTINGER      MOCLDY    41  34  76 N10       30.10R
$$

 *****  OTHER OBSERVATIONS NORTHEAST NORTH DAKOTA  *****

CITY           SKY/WX    TMP DP  RH WIND       PRES   REMARKS
WALHALLA       FAIR      36  28  75 N6        30.27S
LANGDON        FAIR      37  28  70 NE9       30.24S
CAVALIER       FAIR      39  30  70 N3        30.26R
GRAFTON        FAIR      34  30  86 N7        30.25S
CANDO          FAIR      36  27  69 NE10      30.24F
FORT TOTTEN    NOT AVBL
ROLLA          FAIR      34  23  64 N6        30.25S
RUGBY          FAIR      36  28  75 NE9       30.21S
 ***** THE ABOVE OBSERVATIONS ARE NON NWS ARE NOT QUALITY
        CONTROLLED AND MAY MIS-REPORT RAIN FOR SNOW...
$$

 *****  OTHER OBSERVATIONS SOUTHEAST NORTH DAKOTA *****

CITY           SKY/WX    TMP DP  RH WIND       PRES   REMARKS
COOPERSTOWN    NOT AVBL
VALLEY CITY    FAIR      41  32  70 E8        30.16S
OAKES            N/A    N/A N/A N/A MISG        N/A
GWINNER        FAIR      37  37 100 NE8       30.13R
SHEYENNE NWR     N/A     37  34  88 E7        29.95S
BUFFALO          N/A     40  31  70 E13         N/A
WYNDMERE         N/A     41  36  81 E7          N/A
 ***** THE ABOVE OBSERVATIONS ARE NON NWS ARE NOT QUALITY
       CONTROLLED AND MAY MIS-REPORT RAIN FOR SNOW...
$$

  *****  WEATHER ACROSS NORTHERN MINNESOTA  *****

CITY           SKY/WX    TMP DP  RH WIND       PRES   REMARKS
FLAG ISLAND    CLEAR     43  30  61 E5        30.29R
WARROAD        PTCLDY    36  30  80 CALM      30.29R
ROSEAU         PTCLDY    36  30  80 E6        30.28R
HALLOCK        CLEAR     41  30  65 E9        30.25R
THF RVR FALLS  CLEAR     41  28  60 E9        30.24S
HALSTAD        NOT AVBL
FOSSTON        CLEAR     37  30  75 E7        30.23R
BAUDETTE       CLEAR     37  30  75 E3        30.27R
WASKISH        CLEAR     36  32  87 NE5       30.27R
CROOKSTON      CLEAR     41  32  70 E9        30.23R
$$
  *****  WEATHER ACROSS CENTRAL AND WEST MINNESOTA  *****

CITY           SKY/WX    TMP DP  RH WIND       PRES   REMARKS
BEMIDJI        CLEAR     35  31  85 NE5       30.23R
PARK RAPIDS    CLEAR     41  29  62 E6        30.21R
WADENA         CLEAR     37  28  70 NE6       30.17F
DETROIT LAKES  CLEAR     43  32  65 E6        30.19F
MOORHEAD       CLEAR     45  32  61 E8        30.18S
FERGUS FALLS   CLEAR     43  32  65 E8        30.14S
ELBOW LAKE     FAIR      42  33  69 NE13      30.14S
MORRIS MN      CLEAR     43  34  70 E17       30.10S
STAPLES        CLEAR     37  28  70 N3        30.17F
WHEATON        CLEAR     43  36  75 E12       30.13F
$$
  *****  WEATHER ELSEWHERE ACROSS MINNESOTA  *****

CITY           SKY/WX    TMP DP  RH WIND       PRES   REMARKS
DULUTH         CLEAR     36  28  73 E9        30.22R
INTRNTL FALLS  CLEAR     29  27  92 NE3       30.27R
ELY            PTCLDY    34  28  80 CALM      30.26R
CLOQUET        CLEAR     36  28  75 NE8       30.20F
BRAINERD       CLEAR     36  29  75 NE8       30.18F
HIBBING        CLEAR     28  26  92 CALM      30.25R
ALEXANDRIA     CLEAR     40  31  70 E9        30.15F
SAINT CLOUD    CLEAR     40  30  67 NE9       30.13F
MINNEAPOLIS    PTCLDY    44  32  62 NE7       30.11R
$$

  *****  WEATHER ACROSS SOUTH DAKOTA  *****

CITY           SKY/WX    TMP DP  RH WIND       PRES   REMARKS
SIOUX FALLS    MOCLDY    43  38  82 NE14      29.97F
BROOKINGS      CLOUDY    39  36  89 NE8       30.00F
WATERTOWN      CLOUDY    40  35  83 NE9       30.03F
HURON          CLOUDY    42  39  89 NE8       30.00F
SISSETON         N/A     41  34  76 E5        30.10S
ABERDEEN       PTCLDY    39  36  89 N8        30.07F
MITCHELL       CLOUDY    43  41  93 NE9       29.97F
PIERRE         CLOUDY    40  37  89 N12       30.00F
MOBRIDGE       PTCLDY    39  37  92 N5        30.06R
RAPID CITY     CLOUDY    40  37  89 N10       30.02F
$$

  *****  SOME WEATHER IN NEARBY STATES *****

CITY           SKY/WX    TMP DP  RH WIND       PRES   REMARKS
GLASGOW MT     CLOUDY    45  35  68 NE9       30.14R
GREAT FALLS MT CLOUDY    39  34  82 SE3       30.05R
CHEYENNE WY    LGT SNOW  29  27  92 N10       29.86R FOG     WCI  20
SCOTTSBLUFF NE LGT SNOW  33  31  92 NW6       29.92F FOG
OMAHA NE       LGT RAIN  46  44  93 NE15G28   29.77F
DES MOINES IA  LGT RAIN  46  41  82 E18G24    29.89F
DAVENPORT IA   CLOUDY    45  40  82 E17G25    30.00R
CHICAGO IL     CLOUDY    44  40  85 NE7       30.07S
EAU CLAIRE WI  CLOUDY    39  34  82 E6        30.12R
LA CROSSE WI   CLOUDY    41  37  86 S3        30.09F
$$

  *****  SOME NATIONAL WEATHER *****

CITY           SKY/WX    TMP DP  RH WIND       PRES   REMARKS
LA GUARDIA NY  CLOUDY    48  38  68 E6        30.17R
RALEIGH NC     CLOUDY    60  57  89 E5        30.07S
ATLANTA GA     CLOUDY    70  54  56 NE9       29.92S
NEW ORLEANS LA CLOUDY    75  71  87 SE6       29.81R
OKLAHOMA CITY  CLOUDY    51  49  92 NW15      29.72S
ALBUQUERQUE NM CLOUDY    46  36  68 SW7       29.88F
SALT LAKE CITY MOCLDY    48  39  71 W5        29.85F
LOS ANGELES CA MOCLDY    56  50  80 S6        29.86F
BOISE ID       CLEAR     45  37  73 NW17      29.97R
SEATTLE WA     MOCLDY    50  44  80 NE3       30.27R
$$

*** WEATHER ACROSS MANITOBA...SASKATCHEWAN AND ONTARIO ***
                ***ONTARIO***

CITY           SKY/WX    TMP DP  RH WIND       PRES   REMARKS
GERALDTON      MOCLDY    34  30  86 NE7       30.31R
THUNDER BAY    CLOUDY    36  30  80 N2        30.28F
SIOUX LOOKOUT  CLEAR     30  28  93 NE5       30.31R
TORONTO        CLEAR     37  25  60 CALM      30.18R
BIG TROUT LK   MOCLDY    27  25  93 NE2       30.39R
PICKLE LAKE    NOT AVBL
DRYDEN         CLEAR     34  30  86 E3        30.30R
KENORA         CLEAR     36  28  75 E7        30.30R
$$
                *** MANITOBA***

CITY           SKY/WX    TMP DP  RH WIND       PRES   REMARKS
BRANDON        CLEAR     37  25  60 NE12      30.28R
DAUPHIN        CLEAR     27  23  86 W7        30.32S WCI  19
ISLAND LAKE    PTCLDY    32  21  64 SE3       30.38
PILOT MOUND      N/A     36  25  64 NE10        N/A
THE PAS        CLEAR     36  28  75 SE9       30.32S
THOMPSON       PTCLDY    36  25  64 CALM      30.31S
WINNIPEG       CLEAR     34  25  69 NE6       30.30
LYNN LAKE      CLEAR     41  27  56 SW7       30.27S
CHURCHILL      PTCLDY    19  18  93 SE7       30.48  WCI  10
$$
                ***SASKATCHEWAN***

CITY           SKY/WX    TMP DP  RH WIND       PRES   REMARKS
ESTEVAN        CLEAR     36  25  64 E8        30.23R
KINDERSLEY     CLEAR     39  27  60 SE9       30.16R
LLOYDMINSTER   CLOUDY    43  27  52 SE7       30.16R
PRINCE ALBERT  CLEAR     30  25  80 E5        30.26R
REGINA         CLEAR     41  23  48 E14       30.24S
YORKTON        CLEAR     37  27  65 SE7       30.30R
N. BATTLEFORD  CLEAR     43  23  45 E14       30.20S   C1F1C2F2C3F3C4F4C5F5C6F6C7F7C8F8C9F9CaFaCbFbCcFcCdFdCe!


USA.gov is the U.S. government's official web portal to all federal, state and local government web resources and services.